Tracking 31027 objects as of 19-Jul-2025
HD Live streaming from Space Station
objects crossing your sky now

ONEWEB-0593

Track ONEWEB-0593 now!
10-day predictions
ONEWEB-0593 is classified as:


NORAD ID: 54659
Int'l Code: 2022-166T
Perigee: 1,183.4 km
Apogee: 1,186.3 km
Inclination: 87.9 °
Period: 108.9 minutes
Semi major axis: 7555 km
RCS: Unknown
Launch date: December 8, 2022
Source: United Kingdom (UK)
Launch site: AIR FORCE EASTERN TEST RANGE (AFETR)
Your satellite tracking list
ABS 3
Track 1 satellite(s)




NASA's NSSDC Master Catalog

Two Line Element Set (TLE):
1 54659U 22166T   25199.58995092  .00000001  00000-0 -29657-4 0  9994
2 54659  87.9274 310.5310 0001922 105.9698 254.1647 13.21825305127473
Source of the keplerian elements: AFSPC